Time,TemperatureF,DewpointF,PressureIn,WindDirection,WindDirectionDegrees,WindSpeedMPH,WindSpeedGustMPH,Humidity,HourlyPrecipIn,Conditions,Clouds,dailyrainin,SoftwareType,DateUTC
2013-02-03 00:00:00,51.0,37.6,30.48,East,98,4.0,6.0,60,0.00,,,0.01,Wunderground v.1.15,2013-02-03 08:00:00,
2013-02-03 00:10:00,51.7,36.9,30.48,East,94,4.0,4.0,57,0.00,,,0.01,Wunderground v.1.15,2013-02-03 08:10:00,
2013-02-03 00:15:00,51.9,36.7,30.48,East,94,3.0,9.0,56,0.00,,,0.01,Wunderground v.1.15,2013-02-03 08:15:00,
2013-02-03 00:20:00,52.1,36.9,30.48,East,94,2.0,2.0,56,0.00,,,0.01,Wunderground v.1.15,2013-02-03 08:20:00,
2013-02-03 00:30:00,52.3,36.6,30.47,East,94,3.0,9.0,55,0.00,,,0.01,Wunderground v.1.15,2013-02-03 08:30:00,
2013-02-03 00:35:00,51.8,37.9,30.47,East,89,4.0,9.0,59,0.00,,,0.01,Wunderground v.1.15,2013-02-03 08:35:00,
2013-02-03 00:45:00,51.3,37.9,30.47,East,89,4.0,8.0,60,0.00,,,0.01,Wunderground v.1.15,2013-02-03 08:45:00,
2013-02-03 00:50:00,51.3,37.9,30.47,East,89,4.0,8.0,60,0.00,,,0.01,Wunderground v.1.15,2013-02-03 08:50:00,
2013-02-03 01:00:00,51.2,37.4,30.46,East,89,3.0,8.0,59,0.00,,,0.01,Wunderground v.1.15,2013-02-03 09:00:00,
2013-02-03 01:05:00,51.4,37.1,30.47,East,89,4.0,8.0,58,0.00,,,0.00,Wunderground v.1.15,2013-02-03 09:05:00,
2013-02-03 01:10:00,51.4,36.7,30.46,East,89,4.0,8.0,57,0.00,,,0.00,Wunderground v.1.15,2013-02-03 09:10:00,
2013-02-03 01:20:00,52.0,34.9,30.46,East,89,3.0,8.0,52,0.00,,,0.00,Wunderground v.1.15,2013-02-03 09:20:00,
2013-02-03 01:30:00,52.7,34.6,30.45,East,89,1.0,1.0,50,0.00,,,0.00,Wunderground v.1.15,2013-02-03 09:30:00,
2013-02-03 01:35:00,52.6,35.5,30.45,East,89,0.0,6.0,52,0.00,,,0.00,Wunderground v.1.15,2013-02-03 09:35:00,
2013-02-03 01:40:00,52.4,38.5,30.45,East,89,0.0,6.0,59,0.00,,,0.00,Wunderground v.1.15,2013-02-03 09:40:00,
2013-02-03 01:50:00,51.7,37.8,30.44,East,89,0.0,6.0,59,0.00,,,0.00,Wunderground v.1.15,2013-02-03 09:50:00,
2013-02-03 02:00:00,51.4,38.0,30.44,East,89,0.0,6.0,60,0.00,,,0.00,Wunderground v.1.15,2013-02-03 10:00:00,
2013-02-03 02:05:00,51.3,37.4,30.44,East,89,0.0,6.0,59,0.00,,,0.00,Wunderground v.1.15,2013-02-03 10:05:00,
2013-02-03 02:15:00,51.0,38.0,30.44,East,89,0.0,0.0,61,0.00,,,0.00,Wunderground v.1.15,2013-02-03 10:15:00,
2013-02-03 02:20:00,51.0,38.0,30.44,East,89,0.0,0.0,61,0.00,,,0.00,Wunderground v.1.15,2013-02-03 10:20:00,
2013-02-03 02:30:00,51.1,36.8,30.44,East,89,0.0,0.0,58,0.00,,,0.00,Wunderground v.1.15,2013-02-03 10:30:00,
2013-02-03 02:40:00,51.2,36.9,30.43,East,89,0.0,4.0,58,0.00,,,0.00,Wunderground v.1.15,2013-02-03 10:40:00,
2013-02-03 02:45:00,51.6,35.9,30.43,East,89,0.0,4.0,55,0.00,,,0.00,Wunderground v.1.15,2013-02-03 10:45:00,
2013-02-03 02:50:00,51.7,38.7,30.43,East,89,0.0,4.0,61,0.00,,,0.00,Wunderground v.1.15,2013-02-03 10:50:00,
2013-02-03 03:00:00,50.9,38.7,30.43,East,89,1.0,4.0,63,0.00,,,0.00,Wunderground v.1.15,2013-02-03 11:00:00,
2013-02-03 03:05:00,50.8,38.2,30.43,East,89,1.0,4.0,62,0.00,,,0.00,Wunderground v.1.15,2013-02-03 11:05:00,
2013-02-03 03:15:00,50.5,40.7,30.43,East,89,0.0,4.0,69,0.00,,,0.00,Wunderground v.1.15,2013-02-03 11:15:00,
2013-02-03 03:20:00,50.0,40.2,30.42,East,89,0.0,4.0,69,0.00,,,0.00,Wunderground v.1.15,2013-02-03 11:20:00,
2013-02-03 03:30:00,49.5,40.1,30.42,East,89,2.0,4.0,70,0.00,,,0.00,Wunderground v.1.15,2013-02-03 11:30:00,
2013-02-03 03:35:00,49.4,40.4,30.42,East,89,1.0,4.0,71,0.00,,,0.00,Wunderground v.1.15,2013-02-03 11:35:00,
2013-02-03 03:45:00,49.5,39.7,30.42,East,89,0.0,4.0,69,0.00,,,0.00,Wunderground v.1.15,2013-02-03 11:45:00,
2013-02-03 03:50:00,49.6,40.2,30.42,East,89,0.0,4.0,70,0.00,,,0.00,Wunderground v.1.15,2013-02-03 11:50:00,
2013-02-03 04:00:00,49.5,40.1,30.41,East,89,0.0,4.0,70,0.00,,,0.00,Wunderground v.1.15,2013-02-03 12:00:00,
2013-02-03 04:05:00,49.5,40.1,30.41,East,89,1.0,4.0,70,0.00,,,0.00,Wunderground v.1.15,2013-02-03 12:05:00,
2013-02-03 04:15:00,49.4,40.0,30.42,East,89,2.0,3.0,70,0.00,,,0.01,Wunderground v.1.15,2013-02-03 12:15:00,
2013-02-03 04:20:00,49.3,39.9,30.42,East,89,1.0,1.0,70,0.00,,,0.01,Wunderground v.1.15,2013-02-03 12:20:00,
2013-02-03 04:25:00,49.4,40.0,30.42,East,89,1.0,3.0,70,0.00,,,0.01,Wunderground v.1.15,2013-02-03 12:25:00,
2013-02-03 04:30:00,49.3,40.3,30.42,East,89,1.0,1.0,71,0.00,,,0.01,Wunderground v.1.15,2013-02-03 12:30:00,
2013-02-03 04:40:00,49.4,40.0,30.43,East,89,0.0,4.0,70,0.00,,,0.01,Wunderground v.1.15,2013-02-03 12:40:00,
2013-02-03 04:45:00,49.5,39.7,30.43,East,89,1.0,4.0,69,0.00,,,0.01,Wunderground v.1.15,2013-02-03 12:45:00,
2013-02-03 04:50:00,49.5,39.0,30.43,East,89,0.0,4.0,67,0.00,,,0.01,Wunderground v.1.15,2013-02-03 12:50:00,
2013-02-03 05:00:00,49.7,38.4,30.42,East,89,0.0,4.0,65,0.00,,,0.01,Wunderground v.1.15,2013-02-03 13:00:00,
2013-02-03 05:05:00,49.8,38.9,30.42,East,89,0.0,4.0,66,0.00,,,0.01,Wunderground v.1.15,2013-02-03 13:05:00,
2013-02-03 05:15:00,49.9,38.6,30.42,East,89,0.0,4.0,65,0.00,,,0.01,Wunderground v.1.15,2013-02-03 13:15:00,
2013-02-03 05:20:00,49.9,39.4,30.43,East,89,0.0,4.0,67,0.00,,,0.01,Wunderground v.1.15,2013-02-03 13:20:00,
2013-02-03 05:30:00,49.4,40.0,30.42,East,89,0.0,4.0,70,0.00,,,0.01,Wunderground v.1.15,2013-02-03 13:30:00,
2013-02-03 05:35:00,49.2,39.5,30.42,East,89,0.0,4.0,69,0.00,,,0.01,Wunderground v.1.15,2013-02-03 13:35:00,
2013-02-03 05:40:00,49.2,39.5,30.42,East,89,0.0,1.0,69,0.00,,,0.01,Wunderground v.1.15,2013-02-03 13:40:00,
2013-02-03 05:45:00,49.3,39.2,30.42,East,89,1.0,1.0,68,0.00,,,0.01,Wunderground v.1.15,2013-02-03 13:45:00,
2013-02-03 05:55:00,49.3,39.2,30.41,East,89,0.0,1.0,68,0.00,,,0.01,Wunderground v.1.15,2013-02-03 13:55:00,
2013-02-03 06:05:00,49.4,38.5,30.41,East,89,0.0,3.0,66,0.00,,,0.01,Wunderground v.1.15,2013-02-03 14:05:00,
2013-02-03 06:10:00,49.6,38.3,30.42,East,89,0.0,3.0,65,0.00,,,0.01,Wunderground v.1.15,2013-02-03 14:10:00,
2013-02-03 06:20:00,49.6,39.1,30.41,ENE,73,1.0,3.0,67,0.00,,,0.01,Wunderground v.1.15,2013-02-03 14:20:00,
2013-02-03 06:30:00,49.4,38.9,30.42,NE,54,1.0,1.0,67,0.00,,,0.01,Wunderground v.1.15,2013-02-03 14:30:00,
2013-02-03 06:35:00,49.4,39.3,30.41,NE,54,0.0,4.0,68,0.00,,,0.01,Wunderground v.1.15,2013-02-03 14:35:00,
2013-02-03 06:45:00,49.2,39.1,30.41,NE,54,0.0,4.0,68,0.00,,,0.01,Wunderground v.1.15,2013-02-03 14:45:00,
2013-02-03 06:50:00,49.0,38.9,30.41,NE,54,0.0,4.0,68,0.00,,,0.01,Wunderground v.1.15,2013-02-03 14:50:00,
2013-02-03 06:55:00,48.8,39.1,30.41,NE,54,0.0,4.0,69,0.00,,,0.01,Wunderground v.1.15,2013-02-03 14:55:00,
2013-02-03 07:00:00,48.7,38.6,30.41,NE,54,0.0,4.0,68,0.00,,,0.01,Wunderground v.1.15,2013-02-03 15:00:00,
2013-02-03 07:05:00,48.5,38.8,30.42,NE,54,0.0,4.0,69,0.00,,,0.01,Wunderground v.1.15,2013-02-03 15:05:00,
2013-02-03 07:15:00,48.6,38.5,30.42,NE,54,0.0,4.0,68,0.00,,,0.01,Wunderground v.1.15,2013-02-03 15:15:00,
2013-02-03 07:20:00,48.6,38.5,30.42,NE,54,0.0,4.0,68,0.00,,,0.01,Wunderground v.1.15,2013-02-03 15:20:00,
2013-02-03 07:30:00,49.5,38.6,30.42,NE,54,0.0,4.0,66,0.00,,,0.01,Wunderground v.1.15,2013-02-03 15:30:00,
2013-02-03 07:35:00,49.7,38.4,30.42,NE,54,0.0,4.0,65,0.00,,,0.01,Wunderground v.1.15,2013-02-03 15:35:00,
2013-02-03 07:40:00,49.8,38.1,30.42,NNW,344,1.0,7.0,64,0.00,,,0.01,Wunderground v.1.15,2013-02-03 15:40:00,
2013-02-03 07:45:00,49.9,37.8,30.42,NNW,341,2.0,7.0,63,0.00,,,0.01,Wunderground v.1.15,2013-02-03 15:45:00,
2013-02-03 07:55:00,50.4,38.3,30.42,NW,324,4.0,5.0,63,0.00,,,0.01,Wunderground v.1.15,2013-02-03 15:55:00,
2013-02-03 08:00:00,50.7,38.1,30.42,WNW,283,4.0,4.0,62,0.00,,,0.01,Wunderground v.1.15,2013-02-03 16:00:00,
2013-02-03 08:05:00,50.9,38.3,30.42,WNW,285,4.0,8.0,62,0.00,,,0.01,Wunderground v.1.15,2013-02-03 16:05:00,
2013-02-03 08:15:00,51.3,38.3,30.42,WNW,295,4.0,8.0,61,0.00,,,0.01,Wunderground v.1.15,2013-02-03 16:15:00,
2013-02-03 08:20:00,51.4,38.4,30.42,WNW,292,5.0,8.0,61,0.00,,,0.01,Wunderground v.1.15,2013-02-03 16:20:00,
2013-02-03 08:30:00,51.7,38.3,30.42,NW,323,4.0,8.0,60,0.00,,,0.01,Wunderground v.1.15,2013-02-03 16:30:00,
2013-02-03 08:35:00,52.0,38.5,30.42,North,350,4.0,11.0,60,0.00,,,0.01,Wunderground v.1.15,2013-02-03 16:35:00,
2013-02-03 08:45:00,52.1,38.6,30.42,NW,314,5.0,5.0,60,0.00,,,0.01,Wunderground v.1.15,2013-02-03 16:45:00,
2013-02-03 08:50:00,52.8,38.9,30.42,NW,312,5.0,5.0,59,0.00,,,0.01,Wunderground v.1.15,2013-02-03 16:50:00,
2013-02-03 09:00:00,53.5,38.2,30.42,WNW,288,5.0,11.0,56,0.00,,,0.01,Wunderground v.1.15,2013-02-03 17:00:00,
2013-02-03 09:10:00,53.8,38.0,30.42,NW,313,7.0,14.0,55,0.00,,,0.01,Wunderground v.1.15,2013-02-03 17:10:00,
2013-02-03 09:15:00,54.0,38.2,30.42,WNW,303,7.0,14.0,55,0.00,,,0.01,Wunderground v.1.15,2013-02-03 17:15:00,
2013-02-03 09:20:00,54.1,37.8,30.42,WNW,299,8.0,8.0,54,0.00,,,0.01,Wunderground v.1.15,2013-02-03 17:20:00,
2013-02-03 09:30:00,53.9,38.6,30.42,WNW,298,7.0,7.0,56,0.00,,,0.01,Wunderground v.1.15,2013-02-03 17:30:00,
2013-02-03 09:35:00,54.4,38.1,30.42,NW,312,7.0,11.0,54,0.00,,,0.01,Wunderground v.1.15,2013-02-03 17:35:00,
2013-02-03 09:45:00,54.4,38.1,30.42,WNW,287,8.0,14.0,54,0.00,,,0.01,Wunderground v.1.15,2013-02-03 17:45:00,
2013-02-03 09:50:00,54.4,38.6,30.42,NW,319,8.0,14.0,55,0.00,,,0.01,Wunderground v.1.15,2013-02-03 17:50:00,
2013-02-03 10:00:00,54.5,38.2,30.42,WNW,303,9.0,14.0,54,0.00,,,0.01,Wunderground v.1.15,2013-02-03 18:00:00,
2013-02-03 10:10:00,54.6,38.3,30.42,NNW,338,10.0,10.0,54,0.00,,,0.01,Wunderground v.1.15,2013-02-03 18:10:00,
2013-02-03 10:15:00,54.8,38.9,30.42,NNW,333,10.0,16.0,55,0.00,,,0.01,Wunderground v.1.15,2013-02-03 18:15:00,
2013-02-03 10:20:00,55.3,38.4,30.42,WNW,295,9.0,9.0,53,0.00,,,0.01,Wunderground v.1.15,2013-02-03 18:20:00,
2013-02-03 10:30:00,55.3,38.4,30.42,WNW,293,9.0,16.0,53,0.00,,,0.01,Wunderground v.1.15,2013-02-03 18:30:00,
2013-02-03 10:35:00,55.3,38.9,30.42,WNW,288,9.0,16.0,54,0.00,,,0.01,Wunderground v.1.15,2013-02-03 18:35:00,
2013-02-03 10:45:00,55.3,38.9,30.42,WNW,300,9.0,16.0,54,0.00,,,0.01,Wunderground v.1.15,2013-02-03 18:45:00,
2013-02-03 10:50:00,55.9,39.5,30.41,NNW,331,9.0,16.0,54,0.00,,,0.01,Wunderground v.1.15,2013-02-03 18:50:00,
2013-02-03 11:00:00,55.7,38.3,30.41,WNW,300,11.0,11.0,52,0.00,,,0.01,Wunderground v.1.15,2013-02-03 19:00:00,
2013-02-03 11:05:00,55.8,38.4,30.41,NW,316,10.0,16.0,52,0.00,,,0.01,Wunderground v.1.15,2013-02-03 19:05:00,
2013-02-03 11:15:00,56.4,38.5,30.40,West,278,8.0,16.0,51,0.00,,,0.01,Wunderground v.1.15,2013-02-03 19:15:00,
2013-02-03 11:20:00,56.6,38.7,30.40,WNW,294,9.0,9.0,51,0.00,,,0.01,Wunderground v.1.15,2013-02-03 19:20:00,
2013-02-03 11:30:00,56.0,39.1,30.40,NW,316,8.0,16.0,53,0.00,,,0.01,Wunderground v.1.15,2013-02-03 19:30:00,
2013-02-03 11:35:00,56.0,39.6,30.39,WNW,303,8.0,16.0,54,0.00,,,0.01,Wunderground v.1.15,2013-02-03 19:35:00,
2013-02-03 11:45:00,56.2,39.3,30.39,NNW,335,8.0,16.0,53,0.00,,,0.01,Wunderground v.1.15,2013-02-03 19:45:00,
2013-02-03 11:55:00,57.0,39.0,30.38,WNW,291,9.0,11.0,51,0.00,,,0.01,Wunderground v.1.15,2013-02-03 19:55:00,
2013-02-03 12:00:00,56.9,38.9,30.38,WNW,298,9.0,16.0,51,0.00,,,0.01,Wunderground v.1.15,2013-02-03 20:00:00,
2013-02-03 12:05:00,56.8,38.9,30.37,West,265,9.0,20.0,51,0.00,,,0.01,Wunderground v.1.15,2013-02-03 20:05:00,
2013-02-03 12:15:00,57.2,39.2,30.37,NW,318,9.0,20.0,51,0.00,,,0.01,Wunderground v.1.15,2013-02-03 20:15:00,
2013-02-03 12:20:00,57.7,39.7,30.36,WNW,294,9.0,20.0,51,0.00,,,0.01,Wunderground v.1.15,2013-02-03 20:20:00,
2013-02-03 12:30:00,57.5,38.5,30.36,NW,305,10.0,10.0,49,0.00,,,0.01,Wunderground v.1.15,2013-02-03 20:30:00,
2013-02-03 12:35:00,57.4,39.4,30.35,WNW,299,10.0,12.0,51,0.00,,,0.01,Wunderground v.1.15,2013-02-03 20:35:00,
2013-02-03 12:40:00,58.1,39.5,30.35,West,261,10.0,19.0,50,0.00,,,0.01,Wunderground v.1.15,2013-02-03 20:40:00,
2013-02-03 12:50:00,58.3,39.2,30.35,NNW,334,10.0,19.0,49,0.00,,,0.01,Wunderground v.1.15,2013-02-03 20:50:00,
2013-02-03 12:55:00,58.7,39.0,30.35,NW,305,10.0,19.0,48,0.00,,,0.01,Wunderground v.1.15,2013-02-03 20:55:00,
2013-02-03 13:00:00,58.0,38.4,30.34,WSW,256,10.0,19.0,48,0.00,,,0.01,Wunderground v.1.15,2013-02-03 21:00:00,
2013-02-03 13:05:00,57.7,38.7,30.34,NW,325,9.0,20.0,49,0.00,,,0.01,Wunderground v.1.15,2013-02-03 21:05:00,
2013-02-03 13:15:00,58.3,38.7,30.34,WSW,256,9.0,20.0,48,0.00,,,0.01,Wunderground v.1.15,2013-02-03 21:15:00,
2013-02-03 13:20:00,58.7,38.0,30.34,West,267,9.0,20.0,46,0.00,,,0.01,Wunderground v.1.15,2013-02-03 21:20:00,
2013-02-03 13:30:00,58.7,37.4,30.33,West,277,8.0,8.0,45,0.00,,,0.01,Wunderground v.1.15,2013-02-03 21:30:00,
2013-02-03 13:35:00,58.4,37.7,30.33,WNW,302,9.0,9.0,46,0.00,,,0.01,Wunderground v.1.15,2013-02-03 21:35:00,
2013-02-03 13:40:00,58.5,37.2,30.33,WNW,290,10.0,17.0,45,0.00,,,0.01,Wunderground v.1.15,2013-02-03 21:40:00,
2013-02-03 13:45:00,58.8,37.5,30.33,WNW,285,9.0,17.0,45,0.00,,,0.01,Wunderground v.1.15,2013-02-03 21:45:00,
2013-02-03 13:50:00,59.3,37.9,30.33,NNW,333,7.0,17.0,45,0.00,,,0.01,Wunderground v.1.15,2013-02-03 21:50:00,
2013-02-03 14:00:00,59.3,36.8,30.33,West,273,8.0,17.0,43,0.00,,,0.01,Wunderground v.1.15,2013-02-03 22:00:00,
2013-02-03 14:05:00,59.1,36.0,30.33,NW,308,9.0,18.0,42,0.00,,,0.01,Wunderground v.1.15,2013-02-03 22:05:00,
2013-02-03 14:15:00,59.5,37.0,30.33,WNW,289,7.0,18.0,43,0.00,,,0.01,Wunderground v.1.15,2013-02-03 22:15:00,
2013-02-03 14:20:00,59.8,36.6,30.33,WNW,289,6.0,18.0,42,0.00,,,0.01,Wunderground v.1.15,2013-02-03 22:20:00,
2013-02-03 14:25:00,59.5,36.4,30.33,NW,316,8.0,18.0,42,0.00,,,0.01,Wunderground v.1.15,2013-02-03 22:25:00,
2013-02-03 14:30:00,59.5,35.8,30.33,WNW,294,9.0,9.0,41,0.00,,,0.01,Wunderground v.1.15,2013-02-03 22:30:00,
2013-02-03 14:40:00,59.5,35.8,30.33,WSW,255,7.0,17.0,41,0.00,,,0.01,Wunderground v.1.15,2013-02-03 22:40:00,
2013-02-03 14:45:00,59.5,35.8,30.33,West,271,8.0,17.0,41,0.00,,,0.01,Wunderground v.1.15,2013-02-03 22:45:00,
2013-02-03 14:50:00,59.5,35.1,30.33,WNW,284,9.0,9.0,40,0.00,,,0.01,Wunderground v.1.15,2013-02-03 22:50:00,
2013-02-03 15:00:00,59.5,35.1,30.33,WNW,296,8.0,8.0,40,0.00,,,0.01,Wunderground v.1.15,2013-02-03 23:00:00,
2013-02-03 15:05:00,59.7,34.7,30.33,West,269,8.0,11.0,39,0.00,,,0.01,Wunderground v.1.15,2013-02-03 23:05:00,
2013-02-03 15:15:00,60.0,34.3,30.33,West,279,8.0,11.0,38,0.00,,,0.01,Wunderground v.1.15,2013-02-03 23:15:00,
2013-02-03 15:20:00,59.6,33.9,30.33,West,274,9.0,9.0,38,0.00,,,0.01,Wunderground v.1.15,2013-02-03 23:20:00,
2013-02-03 15:30:00,59.8,34.1,30.33,WNW,297,8.0,21.0,38,0.00,,,0.01,Wunderground v.1.15,2013-02-03 23:30:00,
2013-02-03 15:35:00,59.8,34.1,30.34,West,267,7.0,21.0,38,0.00,,,0.01,Wunderground v.1.15,2013-02-03 23:35:00,
2013-02-03 15:45:00,59.7,34.0,30.33,West,281,7.0,8.0,38,0.00,,,0.01,Wunderground v.1.15,2013-02-03 23:45:00,
2013-02-03 15:50:00,59.6,33.9,30.33,West,269,8.0,19.0,38,0.00,,,0.01,Wunderground v.1.15,2013-02-03 23:50:00,
2013-02-03 16:00:00,59.3,33.7,30.33,West,279,9.0,9.0,38,0.00,,,0.01,Wunderground v.1.15,2013-02-04 00:00:00,
2013-02-03 16:05:00,59.1,33.5,30.34,WNW,283,8.0,16.0,38,0.00,,,0.01,Wunderground v.1.15,2013-02-04 00:05:00,
2013-02-03 16:15:00,58.8,33.9,30.34,West,267,6.0,16.0,39,0.00,,,0.01,Wunderground v.1.15,2013-02-04 00:15:00,
2013-02-03 16:20:00,58.6,33.7,30.34,WNW,285,6.0,16.0,39,0.00,,,0.01,Wunderground v.1.15,2013-02-04 00:20:00,
2013-02-03 16:25:00,58.5,33.6,30.34,West,270,7.0,16.0,39,0.00,,,0.01,Wunderground v.1.15,2013-02-04 00:25:00,
2013-02-03 16:30:00,58.4,34.2,30.33,West,264,6.0,6.0,40,0.00,,,0.01,Wunderground v.1.15,2013-02-04 00:30:00,
2013-02-03 16:35:00,58.4,34.2,30.33,West,266,5.0,12.0,40,0.00,,,0.01,Wunderground v.1.15,2013-02-04 00:35:00,
2013-02-03 16:45:00,58.3,34.1,30.33,West,275,3.0,12.0,40,0.00,,,0.01,Wunderground v.1.15,2013-02-04 00:45:00,
2013-02-03 16:50:00,58.1,33.9,30.33,West,263,4.0,12.0,40,0.00,,,0.01,Wunderground v.1.15,2013-02-04 00:50:00,
2013-02-03 17:00:00,57.9,33.7,30.33,West,268,4.0,4.0,40,0.00,,,0.01,Wunderground v.1.15,2013-02-04 01:00:00,
2013-02-03 17:05:00,57.7,34.1,30.33,WNW,297,2.0,14.0,41,0.00,,,0.01,Wunderground v.1.15,2013-02-04 01:05:00,
2013-02-03 17:15:00,57.4,33.9,30.33,West,265,2.0,14.0,41,0.00,,,0.01,Wunderground v.1.15,2013-02-04 01:15:00,
2013-02-03 17:20:00,57.2,34.3,30.33,WNW,285,3.0,14.0,42,0.00,,,0.01,Wunderground v.1.15,2013-02-04 01:20:00,
2013-02-03 17:30:00,56.9,34.6,30.34,West,281,2.0,14.0,43,0.00,,,0.01,Wunderground v.1.15,2013-02-04 01:30:00,
2013-02-03 17:35:00,56.7,34.4,30.34,West,273,2.0,14.0,43,0.00,,,0.01,Wunderground v.1.15,2013-02-04 01:35:00,
2013-02-03 17:45:00,56.3,34.6,30.33,West,269,1.0,8.0,44,0.00,,,0.01,Wunderground v.1.15,2013-02-04 01:45:00,
2013-02-03 17:50:00,56.1,34.5,30.34,West,269,1.0,8.0,44,0.00,,,0.01,Wunderground v.1.15,2013-02-04 01:50:00,
2013-02-03 18:00:00,55.8,34.8,30.34,West,271,0.0,8.0,45,0.00,,,0.01,Wunderground v.1.15,2013-02-04 02:00:00,
2013-02-03 18:05:00,55.6,34.6,30.34,West,269,0.0,8.0,45,0.00,,,0.01,Wunderground v.1.15,2013-02-04 02:05:00,
2013-02-03 18:15:00,55.3,34.9,30.34,West,269,0.0,6.0,46,0.00,,,0.01,Wunderground v.1.15,2013-02-04 02:15:00,
2013-02-03 18:25:00,54.8,34.4,30.35,West,279,0.0,6.0,46,0.00,,,0.01,Wunderground v.1.15,2013-02-04 02:25:00,
2013-02-03 18:30:00,54.5,34.1,30.35,WNW,284,0.0,6.0,46,0.00,,,0.01,Wunderground v.1.15,2013-02-04 02:30:00,
2013-02-03 18:35:00,54.4,34.6,30.35,NNW,336,0.0,6.0,47,0.00,,,0.01,Wunderground v.1.15,2013-02-04 02:35:00,
2013-02-03 18:40:00,53.8,34.6,30.35,NNW,344,0.0,4.0,48,0.00,,,0.01,Wunderground v.1.15,2013-02-04 02:40:00,
2013-02-03 18:50:00,53.6,34.4,30.35,NNW,344,0.0,4.0,48,0.00,,,0.01,Wunderground v.1.15,2013-02-04 02:50:00,
2013-02-03 18:55:00,53.2,34.5,30.35,NNW,344,0.0,4.0,49,0.00,,,0.01,Wunderground v.1.15,2013-02-04 02:55:00,
2013-02-03 19:00:00,53.1,34.4,30.36,NNW,344,0.0,4.0,49,0.00,,,0.01,Wunderground v.1.15,2013-02-04 03:00:00,
2013-02-03 19:10:00,52.8,34.7,30.36,North,352,0.0,0.0,50,0.00,,,0.01,Wunderground v.1.15,2013-02-04 03:10:00,
2013-02-03 19:20:00,52.9,34.2,30.36,NNW,340,1.0,1.0,49,0.00,,,0.01,Wunderground v.1.15,2013-02-04 03:20:00,
2013-02-03 19:30:00,53.1,34.4,30.36,NNW,335,0.0,0.0,49,0.00,,,0.01,Wunderground v.1.15,2013-02-04 03:30:00,
2013-02-03 19:35:00,52.8,34.7,30.36,NNW,335,0.0,6.0,50,0.00,,,0.01,Wunderground v.1.15,2013-02-04 03:35:00,
2013-02-03 19:40:00,52.6,34.5,30.36,NNW,335,0.0,6.0,50,0.00,,,0.01,Wunderground v.1.15,2013-02-04 03:40:00,
2013-02-03 19:50:00,52.4,34.3,30.37,NNW,335,0.0,6.0,50,0.00,,,0.01,Wunderground v.1.15,2013-02-04 03:50:00,
2013-02-03 20:00:00,52.0,34.4,30.38,NNW,335,1.0,6.0,51,0.00,,,0.01,Wunderground v.1.15,2013-02-04 04:00:00,
2013-02-03 20:05:00,52.2,34.6,30.38,NW,318,3.0,7.0,51,0.00,,,0.01,Wunderground v.1.15,2013-02-04 04:05:00,
2013-02-03 20:15:00,52.3,34.2,30.38,NW,320,2.0,7.0,50,0.00,,,0.01,Wunderground v.1.15,2013-02-04 04:15:00,
2013-02-03 20:20:00,52.1,34.5,30.38,NW,320,0.0,7.0,51,0.00,,,0.01,Wunderground v.1.15,2013-02-04 04:20:00,
2013-02-03 20:30:00,51.9,34.3,30.38,NW,320,0.0,7.0,51,0.00,,,0.01,Wunderground v.1.15,2013-02-04 04:30:00,
2013-02-03 20:35:00,51.9,34.3,30.38,NW,320,0.0,7.0,51,0.00,,,0.01,Wunderground v.1.15,2013-02-04 04:35:00,
2013-02-03 20:40:00,51.9,34.3,30.38,NW,320,0.0,6.0,51,0.00,,,0.01,Wunderground v.1.15,2013-02-04 04:40:00,
2013-02-03 20:50:00,52.0,34.4,30.38,NNW,343,0.0,6.0,51,0.00,,,0.01,Wunderground v.1.15,2013-02-04 04:50:00,
2013-02-03 20:55:00,51.6,34.0,30.38,NNW,344,0.0,6.0,51,0.00,,,0.01,Wunderground v.1.15,2013-02-04 04:55:00,
2013-02-03 21:05:00,50.4,33.9,30.38,NNW,347,0.0,6.0,53,0.00,,,0.01,Wunderground v.1.15,2013-02-04 05:05:00,
2013-02-03 21:10:00,50.1,34.1,30.38,NNW,347,0.0,0.0,54,0.00,,,0.01,Wunderground v.1.15,2013-02-04 05:10:00,
2013-02-03 21:15:00,49.8,34.3,30.38,NNW,347,0.0,0.0,55,0.00,,,0.01,Wunderground v.1.15,2013-02-04 05:15:00,
2013-02-03 21:20:00,49.3,34.3,30.38,NNW,347,0.0,0.0,56,0.00,,,0.01,Wunderground v.1.15,2013-02-04 05:20:00,
2013-02-03 21:30:00,49.1,34.1,30.38,NNW,348,0.0,0.0,56,0.00,,,0.01,Wunderground v.1.15,2013-02-04 05:30:00,
2013-02-03 21:35:00,48.5,34.4,30.38,NNW,348,0.0,0.0,58,0.00,,,0.01,Wunderground v.1.15,2013-02-04 05:35:00,
2013-02-03 21:40:00,47.5,34.3,30.38,NNW,348,0.0,0.0,60,0.00,,,0.01,Wunderground v.1.15,2013-02-04 05:40:00,
2013-02-03 21:50:00,47.1,33.9,30.37,NNE,15,0.0,0.0,60,0.00,,,0.01,Wunderground v.1.15,2013-02-04 05:50:00,
2013-02-03 22:00:00,46.9,34.6,30.38,NNE,18,0.0,0.0,62,0.00,,,0.01,Wunderground v.1.15,2013-02-04 06:00:00,
2013-02-03 22:05:00,46.1,34.2,30.37,NNE,18,0.0,0.0,63,0.00,,,0.01,Wunderground v.1.15,2013-02-04 06:05:00,
2013-02-03 22:15:00,45.5,34.0,30.37,NNE,19,0.0,0.0,64,0.00,,,0.01,Wunderground v.1.15,2013-02-04 06:15:00,
2013-02-03 22:20:00,46.0,34.1,30.37,NNE,29,0.0,0.0,63,0.00,,,0.01,Wunderground v.1.15,2013-02-04 06:20:00,
2013-02-03 22:30:00,47.6,34.0,30.37,NE,35,0.0,0.0,59,0.00,,,0.01,Wunderground v.1.15,2013-02-04 06:30:00,
2013-02-03 22:35:00,47.7,33.6,30.38,NE,35,0.0,0.0,58,0.00,,,0.01,Wunderground v.1.15,2013-02-04 06:35:00,
2013-02-03 22:45:00,46.9,33.7,30.38,NE,35,0.0,0.0,60,0.00,,,0.01,Wunderground v.1.15,2013-02-04 06:45:00,
2013-02-03 22:50:00,46.4,33.7,30.38,NE,35,0.0,0.0,61,0.00,,,0.01,Wunderground v.1.15,2013-02-04 06:50:00,
2013-02-03 23:00:00,46.0,33.7,30.38,NE,35,0.0,0.0,62,0.00,,,0.01,Wunderground v.1.15,2013-02-04 07:00:00,
2013-02-03 23:05:00,46.5,33.8,30.38,NE,35,0.0,1.0,61,0.00,,,0.01,Wunderground v.1.15,2013-02-04 07:05:00,
2013-02-03 23:15:00,45.9,33.2,30.38,NE,35,0.0,1.0,61,0.00,,,0.01,Wunderground v.1.15,2013-02-04 07:15:00,
2013-02-03 23:20:00,46.4,33.3,30.39,NE,37,0.0,1.0,60,0.00,,,0.01,Wunderground v.1.15,2013-02-04 07:20:00,
2013-02-03 23:25:00,46.7,33.1,30.38,NE,37,0.0,1.0,59,0.00,,,0.01,Wunderground v.1.15,2013-02-04 07:25:00,
2013-02-03 23:30:00,46.7,33.1,30.38,NE,39,0.0,1.0,59,0.00,,,0.01,Wunderground v.1.15,2013-02-04 07:30:00,
2013-02-03 23:35:00,46.9,32.9,30.39,NE,42,0.0,4.0,58,0.00,,,0.01,Wunderground v.1.15,2013-02-04 07:35:00,
2013-02-03 23:45:00,47.6,32.2,30.39,NE,42,0.0,4.0,55,0.00,,,0.01,Wunderground v.1.15,2013-02-04 07:45:00,
2013-02-03 23:50:00,47.4,32.5,30.39,NE,42,0.0,4.0,56,0.00,,,0.01,Wunderground v.1.15,2013-02-04 07:50:00,